| time (UTC) | temp F | wind direction | speed MPH | gust MPH | rain 1hr in | rain 24hr in | rain mn in | humidity % | barometer mb |
| 20260901112038 | 69 | 300 | 0.0 | 0.0 | 0.00 | 0.01 | 0.00 | 97 | 1014.6 |
| 20260901110525 | 69 | 300 | 0.0 | 1.0 | 0.00 | 0.01 | 0.00 | 97 | 1014.8 |
| 20260901105028 | 69 | 300 | 0.0 | 0.0 | 0.00 | 0.01 | 0.00 | 97 | 1014.8 |
| 20260901103533 | 68 | 300 | 0.0 | 0.0 | 0.00 | 0.01 | 0.00 | 97 | 1015.0 |
| 20260901102045 | 68 | 300 | 0.0 | 1.0 | 0.00 | 0.01 | 0.00 | 96 | 1015.1 |
| 20260901100532 | 68 | 300 | 0.0 | 0.0 | 0.00 | 0.01 | 0.00 | 97 | 1015.0 |
| 20260901095056 | 68 | 300 | 0.0 | 0.0 | 0.00 | 0.01 | 0.00 | 97 | 1015.0 |
| 20260901093541 | 68 | 300 | 0.0 | 0.0 | 0.00 | 0.01 | 0.00 | 97 | 1015.0 |
| 20260901092048 | 68 | 300 | 0.0 | 0.0 | 0.00 | 0.01 | 0.00 | 96 | 1014.9 |
| 20260901090552 | 68 | 300 | 0.0 | 0.0 | 0.00 | 0.01 | 0.00 | 96 | 1015.0 |
| 20260901085048 | 68 | 300 | 0.0 | 0.0 | 0.00 | 0.01 | 0.00 | 97 | 1015.2 |
| 20260901083532 | 68 | 300 | 0.0 | 0.0 | 0.00 | 0.01 | 0.00 | 97 | 1015.3 |
| 20260901082042 | 68 | 300 | 0.0 | 0.0 | 0.00 | 0.01 | 0.00 | 96 | 1015.2 |
| 20260901080531 | 68 | 300 | 0.0 | 0.0 | 0.00 | 0.01 | 0.00 | 97 | 1015.4 |
| 20260901075030 | 68 | 300 | 0.0 | 1.0 | 0.00 | 0.01 | 0.00 | 96 | 1015.4 |
| 20260901073532 | 68 | 300 | 0.0 | 0.0 | 0.00 | 0.01 | 0.00 | 96 | 1015.4 |
| 20260901072042 | 68 | 300 | 0.0 | 0.0 | 0.00 | 0.01 | 0.00 | 96 | 1015.5 |
| 20260901070530 | 68 | 300 | 0.0 | 0.0 | 0.00 | 0.01 | 0.00 | 96 | 1015.5 |
| 20260901065047 | 68 | 300 | 0.0 | 0.0 | 0.00 | 0.01 | 0.00 | 96 | 1015.6 |
| 20260901063553 | 68 | 300 | 0.0 | 0.0 | 0.00 | 0.01 | 0.00 | 96 | 1015.7 |
| 20260901062039 | 68 | 300 | 0.0 | 0.0 | 0.00 | 0.01 | 0.00 | 96 | 1015.8 |
| 20260901060547 | 68 | 300 | 0.0 | 0.0 | 0.00 | 0.01 | 0.00 | 96 | 1015.8 |
| 20260901055052 | 68 | 300 | 0.0 | 0.0 | 0.00 | 0.01 | 0.00 | 96 | 1016.1 |
| 20260901053533 | 68 | 300 | 0.0 | 0.0 | 0.00 | 0.01 | 0.00 | 96 | 1016.2 |
| 20260901052038 | 68 | 300 | 0.0 | 0.0 | 0.00 | 0.01 | 0.00 | 96 | 1016.3 |
| 20260901050527 | 68 | 300 | 0.0 | 0.0 | 0.00 | 0.01 | 0.00 | 96 | 1016.5 |
| 20260901045028 | 68 | 300 | 0.0 | 0.0 | 0.00 | 0.01 | 0.00 | 96 | 1016.5 |
| 20260901043530 | 68 | 300 | 0.0 | 0.0 | 0.00 | 0.01 | 0.00 | 96 | 1016.4 |
| 20260901042106 | 68 | 300 | 0.0 | 0.0 | 0.00 | 0.01 | 0.00 | 95 | 1016.5 |
| 20260901040550 | 68 | 300 | 0.0 | 0.0 | 0.00 | 0.01 | 0.00 | 95 | 1016.5 |
| 20260901035027 | 68 | 300 | 0.0 | 0.0 | 0.00 | 0.01 | 0.01 | 95 | 1016.4 |
| 20260901033527 | 69 | 300 | 0.0 | 0.0 | 0.00 | 0.01 | 0.01 | 95 | 1016.6 |
| 20260901032030 | 69 | 300 | 0.0 | 0.0 | 0.00 | 0.01 | 0.01 | 95 | 1016.6 |
| 20260901030538 | 69 | 300 | 0.0 | 0.0 | 0.00 | 0.01 | 0.01 | 95 | 1016.7 |
| 20260901025043 | 69 | 300 | 0.0 | 0.0 | 0.00 | 0.01 | 0.01 | 95 | 1017.0 |
| 20260901023543 | 69 | 300 | 0.0 | 0.0 | 0.00 | 0.01 | 0.01 | 95 | 1017.1 |
| 20260901022054 | 69 | 300 | 0.0 | 0.0 | 0.00 | 0.01 | 0.01 | 95 | 1017.3 |
| 20260901020549 | 69 | 300 | 0.0 | 0.0 | 0.00 | 0.01 | 0.01 | 95 | 1017.3 |
| 20260901015026 | 68 | 300 | 0.0 | 0.0 | 0.00 | 0.01 | 0.01 | 94 | 1017.3 |
| 20260901013542 | 68 | 300 | 0.0 | 0.0 | 0.00 | 0.01 | 0.01 | 94 | 1017.3 |
| 20260901012046 | 68 | 300 | 0.0 | 0.0 | 0.00 | 0.01 | 0.01 | 93 | 1017.2 |
| 20260901010535 | 69 | 300 | 0.0 | 0.0 | 0.00 | 0.01 | 0.01 | 93 | 1017.2 |
| 20260901005153 | 69 | 300 | 0.0 | 0.0 | 0.00 | 0.02 | 0.01 | 93 | 1017.2 |
| 20260901003613 | 69 | 300 | 0.0 | 0.0 | 0.00 | 0.02 | 0.01 | 92 | 1017.2 |
| 20260901002032 | 70 | 300 | 0.0 | 0.0 | 0.00 | 0.02 | 0.01 | 92 | 1017.0 |
| 20260901000538 | 70 | 300 | 0.0 | 0.0 | 0.00 | 0.02 | 0.01 | 91 | 1017.0 |
| 20260831235040 | 70 | 300 | 0.0 | 0.0 | 0.00 | 0.02 | 0.01 | 90 | 1017.0 |
| 20260831233528 | 71 | 300 | 0.0 | 0.0 | 0.00 | 0.02 | 0.01 | 90 | 1017.0 |
| 20260831232103 | 71 | 300 | 0.0 | 0.0 | 0.00 | 0.02 | 0.01 | 90 | 1017.1 |
| 20260831230530 | 72 | 302 | 0.0 | 0.0 | 0.00 | 0.02 | 0.01 | 89 | 1017.2 |
| 20260831225033 | 72 | 302 | 0.0 | 0.0 | 0.00 | 0.02 | 0.01 | 89 | 1017.3 |
| 20260831223534 | 72 | 302 | 0.0 | 0.0 | 0.00 | 0.02 | 0.01 | 89 | 1017.3 |
| 20260831222044 | 72 | 302 | 0.0 | 2.0 | 0.00 | 0.02 | 0.01 | 88 | 1017.5 |
| 20260831220533 | 73 | 296 | 0.0 | 3.0 | 0.00 | 0.02 | 0.01 | 89 | 1017.6 |
| 20260831215038 | 73 | 298 | 1.0 | 3.0 | 0.00 | 0.02 | 0.01 | 88 | 1017.7 |
| 20260831213543 | 73 | 302 | 1.0 | 2.0 | 0.00 | 0.02 | 0.01 | 89 | 1017.7 |
| 20260831212033 | 73 | 291 | 1.0 | 3.0 | 0.00 | 0.02 | 0.01 | 89 | 1017.7 |
| 20260831210543 | 73 | 325 | 0.0 | 2.0 | 0.00 | 0.02 | 0.01 | 89 | 1017.6 |
| 20260831205043 | 73 | 152 | 1.0 | 3.0 | 0.01 | 0.02 | 0.01 | 88 | 1017.8 |
| 20260831203528 | 73 | 323 | 0.0 | 1.0 | 0.01 | 0.02 | 0.01 | 88 | 1018.1 |
| 20260831202105 | 73 | 257 | 0.0 | 1.0 | 0.01 | 0.02 | 0.01 | 89 | 1018.2 |
| 20260831200532 | 73 | 292 | 0.0 | 1.0 | 0.01 | 0.02 | 0.01 | 88 | 1018.2 |
| 20260831195035 | 74 | 292 | 0.0 | 2.0 | 0.00 | 0.01 | 0.00 | 84 | 1018.3 |
| 20260831193539 | 74 | 340 | 1.0 | 3.0 | 0.00 | 0.01 | 0.00 | 82 | 1018.4 |
| 20260831192027 | 73 | 312 | 2.0 | 4.0 | 0.00 | 0.01 | 0.00 | 84 | 1018.6 |
| 20260831190536 | 73 | 348 | 0.0 | 3.0 | 0.00 | 0.01 | 0.00 | 84 | 1019.0 |
| 20260831185038 | 72 | 290 | 1.0 | 3.0 | 0.00 | 0.01 | 0.00 | 85 | 1019.1 |
| 20260831183543 | 72 | 25 | 0.0 | 0.0 | 0.00 | 0.01 | 0.00 | 88 | 1019.2 |
| 20260831182047 | 72 | 25 | 0.0 | 1.0 | 0.00 | 0.01 | 0.00 | 86 | 1019.3 |
| 20260831180533 | 72 | 310 | 0.0 | 0.0 | 0.00 | 0.01 | 0.00 | 85 | 1019.4 |
| 20260831175036 | 72 | 310 | 0.0 | 0.0 | 0.00 | 0.01 | 0.00 | 86 | 1019.3 |
| 20260831173539 | 72 | 40 | 0.0 | 0.0 | 0.00 | 0.01 | 0.00 | 85 | 1019.2 |
| 20260831172028 | 72 | 18 | 0.0 | 1.0 | 0.00 | 0.01 | 0.00 | 85 | 1019.4 |
| 20260831170540 | 73 | 55 | 0.0 | 0.0 | 0.00 | 0.01 | 0.00 | 83 | 1019.0 |
| 20260831165043 | 73 | 55 | 0.0 | 1.0 | 0.00 | 0.01 | 0.00 | 81 | 1019.2 |
| 20260831163530 | 74 | 1 | 1.0 | 3.0 | 0.00 | 0.01 | 0.00 | 79 | 1019.4 |
| 20260831162039 | 73 | 359 | 0.0 | 2.0 | 0.00 | 0.01 | 0.00 | 79 | 1019.3 |
| 20260831160545 | 72 | 337 | 1.0 | 2.0 | 0.00 | 0.01 | 0.00 | 82 | 1019.3 |
| 20260831155027 | 71 | 291 | 0.0 | 2.0 | 0.00 | 0.01 | 0.00 | 88 | 1019.6 |
| 20260831153531 | 71 | 262 | 0.0 | 0.0 | 0.00 | 0.01 | 0.00 | 87 | 1019.8 |
| 20260831152055 | 71 | 262 | 0.0 | 0.0 | 0.00 | 0.01 | 0.00 | 87 | 1020.0 |
| 20260831150616 | 71 | 262 | 0.0 | 2.0 | 0.00 | 0.01 | 0.00 | 88 | 1020.1 |
| 20260831145028 | 71 | 159 | 0.0 | 0.0 | 0.00 | 0.01 | 0.00 | 89 | 1019.6 |
| 20260831143537 | 71 | 159 | 0.0 | 0.0 | 0.00 | 0.01 | 0.00 | 88 | 1020.0 |
| 20260831142047 | 71 | 159 | 0.0 | 2.0 | 0.00 | 0.01 | 0.00 | 87 | 1019.9 |
| 20260831140537 | 70 | 174 | 1.0 | 3.0 | 0.00 | 0.01 | 0.00 | 90 | 1019.7 |
| 20260831135028 | 70 | 153 | 1.0 | 2.0 | 0.00 | 0.01 | 0.00 | 93 | 1019.7 |
| 20260831133601 | 68 | 159 | 0.0 | 2.0 | 0.00 | 0.01 | 0.00 | 95 | 1019.8 |
| 20260831132051 | 68 | 164 | 1.0 | 2.0 | 0.00 | 0.01 | 0.00 | 96 | 1019.6 |
| 20260831130608 | 67 | 309 | 0.0 | 0.0 | 0.00 | 0.01 | 0.00 | 96 | 1019.7 |
| 20260831125032 | 67 | 309 | 0.0 | 0.0 | 0.00 | 0.01 | 0.00 | 97 | 1019.8 |
| 20260831123605 | 67 | 309 | 0.0 | 0.0 | 0.00 | 0.01 | 0.00 | 96 | 1019.7 |
| 20260831122031 | 67 | 309 | 0.0 | 0.0 | 0.00 | 0.01 | 0.00 | 97 | 1019.6 |
| 20260831120540 | 66 | 309 | 0.0 | 0.0 | 0.00 | 0.01 | 0.00 | 96 | 1019.7 |
| 20260831115041 | 66 | 309 | 0.0 | 0.0 | 0.00 | 0.01 | 0.00 | 97 | 1019.7 |
| 20260831113530 | 66 | 309 | 0.0 | 0.0 | 0.00 | 0.01 | 0.00 | 96 | 1019.6 |